Miscellaneous Local Product
Issued by NWS North Platte, NE

Home | Current Version | Previous Version | Graphics & Text | Print | Product List | Glossary On
Versions: 1 2 3 4 5 6 7 8 9 10 11 12 13 14 15 16 17 18 19 20 21 22 23 24 25 26 27 28 29 30 31 32 33 34 35 36 37 38 39 40 41 42 43 44 45 46 47 48 49 50
000
AXUS43 KLBF 271410
MISLBF


WESTERN AND NORTH CENTRAL NEBRASKA HOURLY WEATHER ROUNDUP
NATIONAL WEATHER SERVICE NORTH PLATTE NE
800 AM CST TUE JAN 27 2015

***STATIONS NOT REPORTING VARIABLES SUCH AS SKY/WEATHER OR
PRESSURE ARE PROVIDED BY THE NEBRASKA DEPARTMENT OF
ROADS...RAWS...AND APRS NETWORKS...AND ARE NOT UNDER
NATIONAL WEATHER SERVICE QUALITY CONTROL***

...OBSERVATIONS IN AND NEAR THE EASTERN PANHANDLE OF NEBRASKA...

CITY           SKY/WX    TMP DP  RH WIND       PRES   REMARKS
PINE RIDGE     CLEAR     43  27  53 SW8       30.00S
CHADRON        PTCLDY    34  27  75 W9        30.03R WCI  27
ALLIANCE       PTCLDY    32  28  85 W9        30.04R WCI  24
SIDNEY         PTCLDY    31  24  75 W5        30.10R WCI  26
WHITECLAY        N/A     35  24  65 SE6         N/A  WCI  29
CRESCENT LAKE    N/A     38  24  57 N3          N/A
LISCO            N/A     32  27  80 W9          N/A  WCI  24
LEWELLEN         N/A     27  25  94 CALM        N/A
$$

...OBSERVATIONS IN NORTH CENTRAL NEBRASKA...

CITY           SKY/WX    TMP DP  RH WIND       PRES   REMARKS
VALENTINE      CLEAR     31  28  89 SW6       29.98R WCI  25
THEDFORD       CLEAR     33  30  86 W8        30.02R WCI  27
AINSWORTH      PTCLDY    33  29  83 SW5       29.97S WCI  29
O`NEILL        CLEAR     34  30  85 SE8       30.02R WCI  27
ORD            CLEAR     24  22  91 S3        30.02R
BROKEN BOW     CLEAR     28  25  88 CALM      30.00S
BROWNLEE         N/A     37  30  75 SW5         N/A  WCI  33
VALENTINE NWR    N/A     34  29  82 S3          N/A
SPRINGVIEW       N/A     23  21  93 CALM        N/A
BREWSTER         N/A     29  28  94 CALM        N/A
ROSE             N/A     35  33  92 CALM        N/A
NEWPORT          N/A     33  32  94 CALM        N/A
SARGENT          N/A     27  26  95 CALM        N/A
COMSTOCK         N/A     33  30  90 CALM        N/A
CHAMBERS         N/A     32  28  85 E3          N/A
EWING            N/A     33  31  94 SE3         N/A
$$

...OBSERVATIONS IN SOUTHWEST NEBRASKA AND FAR NORTHEAST COLORADO...

CITY           SKY/WX    TMP DP  RH WIND       PRES   REMARKS
WRAY           FAIR      35  30  82 W9        30.10R WCI  27
HOLYOKE        FAIR      37  30  75 W12       30.08S WCI  30
IMPERIAL       CLEAR     36  27  69 W7        30.07S WCI  30
OGALLALA       PTCLDY    29  27  92 W7        30.06S WCI  22
NORTH PLATTE   CLEAR     23  21  92 NW5       30.04S WCI  17
MCCOOK         CLEAR     35  29  78 W13       30.07R WCI  26
LEXINGTON      CLEAR     29  26  89 SW5       30.03F WCI  24
BRADY            N/A     30  26  84 CALM        N/A
GOTHENBURG       N/A     34  27  76 NW6         N/A  WCI  29
CALLAWAY         N/A     41  33  72 NW6         N/A
$$

...NORTH PLATTE AREA...

CITY           SKY/WX    TMP DP  RH WIND       PRES   REMARKS
AIRPORT        CLEAR     23  21  92 NW5       30.04S WCI  17
DOWNTOWN         N/A     29  26  88 CALM        N/A
$$

...SOME WEATHER OBSERVATIONS FROM AROUND THE REGION...

CITY           SKY/WX    TMP DP  RH WIND       PRES   REMARKS
DENVER         PTCLDY    45  22  40 SW16      30.15S
LARAMIE        PTCLDY    42  20  41 SW8       30.26R
CHEYENNE       CLEAR     44  18  35 W9        30.16R
SCOTTSBLUFF      N/A    N/A N/A N/A MISG      30.08R
RAPID CITY     CLEAR     45  25  45 NW10      29.95R
PIERRE         PTCLDY    31  28  89 SE8       29.94S WCI  23
WINNER         FAIR      36  29  75 S5        29.96R WCI  32
SIOUX FALLS    FOG       28  27  96 E7        30.09R VSB 1/8 WCI  21
OMAHA          CLEAR     28  25  88 SE3       30.13R
GRAND ISLAND   CLEAR     34  28  79 S9        30.06R WCI  27
KANSAS CITY    FAIR      34  32  92 NW5       30.15R WCI  30
WICHITA        PTCLDY    34  28  79 CALM      30.12R
HAYS           PTCLDY    30  19  64 W6        30.08S WCI  24
LIBERAL        PTCLDY    36  27  69 NW7       30.18R WCI  30
GOODLAND       CLEAR     43  27  53 W12       30.10R
$$



USA.gov is the U.S. government's official web portal to all federal, state and local government web resources and services.